Location: Unspecified
(41.1850°N, 73.2650°W)
Time: 21:12:15
(UTC+00:00)

Cosmos 1726 Rocket - Pass Details

Date: 14 December 2025
Orbit: 554 x 663 km, 82.5° (Epoch: 12 January)

Event Time Altitude Azimuth Distance (km) Brightness Sun altitude
Rises 22:10:47 0° 184° (S) 2,983 7.5 -8.5°
Reaches altitude 10° 22:13:03 10° 183° (S) 2,073 6.6 -8.9°
Maximum altitude 22:17:40 82° 98° (E) 669 3.6 -9.7°
Drops below altitude 10° 22:22:16 10° 10° (N) 2,056 5.9 -10.5°
Sets 22:24:30 0° 9° (N) 2,956 6.7 -10.9°
